CZ-2D DEB, 44612

Orbit data source: Space-Track

CZ-2D DEB, 44612 is space debris in SSO originally from a launch on Mon, 09 Oct 2017 UTC launched from the Jiuquan Satellite Launch Center, China (JSC). Debris objects in space refer to the collection of defunct objects orbiting the Earth. Examples of debris include non-operational satellites, rocket bodies, and fragments generated from explosions, collisions, or faulty payload assembly.

Loading next visibility...
Identifier
44612, 2017-060E
Orbit
SSO
Country
Flag of CNCN / PRC
Related business
Manufacturer
Unknown
Mission
Spacecraft
Bus & Motor
Unknown
Mass
Unknown
Launch date (UTC)
2017-10-09 (8 years ago)
Launch vehicle
Unknown
Launch site
Jiuquan Satellite Launch Center, China (JSC)
Object type
Payload
Rocket body
Debris
Shape & HBR
Unknown shape, 0.1 m
Radar Cross Section
Small (<0.1 m²)

Expand to show TLE details & history
Last TLE update: 7 hours ago

TLE from 7 hours ago
0 CZ-2D DEB
1 44612U 17060E   26095.50862475  .00006192  00000-0  58589-3 0  9996
2 44612  97.5928 101.8177 0009880 349.0450  11.0553 14.93956132456030
Epoch: 2026-04-05T12:12Z
TLE epoch observation values (Epoch: 2026-04-05T12:12:25.178Z)
Latitude
-0.00009°
Longitude
84.89977°
Altitude
581.911 km
Speed
7.573 km/s
True Right ascension
06h 47m 16s
True Declination
0° 00' 00"
Sunlit
Object was in daylight at epoch
Visualization orbit readout
Latitude
Unknown
Longitude
Unknown
Altitude
Unknown
Speed
Unknown
Apparent Right ascension
Unknown
Apparent Declination
Unknown
Sunlit
N/A
Visualization observer readout
Local Sidereal Time
01:09:57
Azimuth
Unknown
Elevation
Unknown
Doppler factor
Unknown
Orbital elements
Apogee altitude
589.501 km
Perigee altitude
575.746 km
Semi-major axis
6,960.76 km
Eccentricity
0.00099
Inclination
97.5928°
RAAN
101.8177°
Arg. of periapsis
349.045°
True anomaly
11.07704°
Mean anomaly
11.0553°
Eccentric anomaly
11.06617°
Mean motion
3.7373 °/min
Orbital period
96.33 mins
BSTAR
0.00058589
Loading maneuver chart data...
Computing Atmospheric mass density...
Loading historical data...
Loading historical data...
Loading historical data...
Loading historical data...
Loading historical data...
Loading historical data...
Loading historical data...
Other satellites on launch #60 in the year 2017 (2017-10-09 UTC)

Documentation

Showing up to 5 results
|